Regional Weather Roundup
Issued by NWS

Home | Current Version | Previous Version | Graphics & Text | Print | Product List | Glossary On
Versions: 1 2 3 4 5 6 7 8 9 10 11 12 13 14 15 16 17 18 19 20 21 22 23 24 25 26 27 28 29 30 31 32 33 34 35 36 37 38 39 40 41 42 43 44 45 46 47 48 49 50
000
ASUS43 KOAX 290110
RWRNE

WEATHER ROUNDUP FOR NEBRASKA
NATIONAL WEATHER SERVICE OMAHA NE
800 PM CDT SAT MAR 28 2015

NOTES: SATELLITE DATA IS BEING USED TO AUGMENT CLOUD COVER ABOVE
       12000 FEET.
       "FAIR" INDICATES FEW OR NO CLOUDS BELOW 12,000 FEET WITH NO
       SIGNIFICANT WEATHER AND/OR OBSTRUCTIONS TO VISIBILITY.

  * THESE STATIONS DO NOT REPORT WEATHER SUCH AS RAIN...SNOW OR FOG.

NEZ001>004-019>022-054>056-290200-
NEBRASKA PANHANDLE

CITY           SKY/WX    TMP DP  RH WIND       PRES   REMARKS
SCOTTSBLUFF    PTCLDY    75  26  16 W15G24    29.74F
ALLIANCE       PTCLDY    73  28  18 W15       29.72F
CHADRON        PTCLDY    77  27  15 W12       29.63F
KIMBALL        PTCLDY    70  21  15 W13       29.84S
SIDNEY         PTCLDY    69  25  19 W10       29.82R
$$

NEZ057>060-069>072-079>082-290200-
SOUTHWEST NEBRASKA

CITY           SKY/WX    TMP DP  RH WIND       PRES   REMARKS
NORTH PLATTE   CLEAR     67  35  30 SE15      29.78S
IMPERIAL         N/A     74  25  16 SW10      29.78F
LEXINGTON      CLEAR     64  35  34 SE20      29.83F
MCCOOK         CLEAR     72  35  25 SE16G25   29.80F
OGALLALA       CLEAR     71  30  21 W5        29.74F
$$

NEZ005>010-023>029-035>040-094-290200-
NORTH CENTRAL NEBRASKA

CITY           SKY/WX    TMP DP  RH WIND       PRES   REMARKS
VALENTINE      CLEAR     72  34  24 S23G32    29.65F
AINSWORTH      CLEAR     65  34  32 S24       29.71F
BROKEN BOW     CLEAR     63  36  36 S17       29.81F
O`NEILL        CLEAR     56  35  44 SE18G24   29.81F
ORD            CLEAR     59  33  37 SE15      29.83F
THEDFORD       CLEAR     70  37  29 S21G29    29.74F
$$

NEZ041-046>049-061>064-073>077-083>087-290200-
SOUTH CENTRAL NEBRASKA

CITY           SKY/WX    TMP DP  RH WIND       PRES   REMARKS
GRAND ISLAND   CLEAR     56  34  43 SE12      29.92F
AURORA         CLEAR     54  33  45 SE13      29.93F
HASTINGS       CLEAR     58  34  40 SE13      29.91F
HEBRON         CLEAR     54  32  44 SE8       29.97S
HOLDREGE       CLEAR     60  33  36 SE15      29.86F
KEARNEY *      CLEAR     61  34  36 SE16      29.88F
YORK           CLEAR     54  34  47 S13       29.95F
$$

NEZ011>018-030>034-042>045-290200-
NORTHEAST NEBRASKA

CITY           SKY/WX    TMP DP  RH WIND       PRES   REMARKS
NORFOLK        CLEAR     50  34  54 SE15      29.91F
ALBION         CLEAR     52  33  47 SE13G22   29.91S
BLAIR          CLEAR     49  31  49 SE16      29.99F
COLUMBUS *     CLEAR     50  32  50 SE13      29.96F
FREMONT        CLEAR     50  32  49 SE15G21   29.99F
TEKAMAH        CLEAR     50  29  44 SE20G36   29.99F
WAYNE          CLEAR     48  32  54 S15       29.94F
$$

NEZ050>053-065>068-078-088>093-290200-
SOUTHEAST NEBRASKA

CITY           SKY/WX    TMP DP  RH WIND       PRES   REMARKS
LINCOLN        CLEAR     52  33  48 SE14      30.00F
OMAHA EPPLEY   PTCLDY    49  31  49 SE15      30.02F
BEATRICE       CLEAR     52  33  49 SE12      29.99F
FALLS CITY     CLEAR     47  31  53 SE12      30.06F
NEBRASKA CITY  CLEAR     48  30  50 SE12      30.04F
PLATTSMOUTH    CLEAR     48  30  49 SE13      30.03F
$$

NEZ044-045-051>053-067-290200-
OMAHA AREA

CITY           SKY/WX    TMP DP  RH WIND       PRES   REMARKS
OMAHA EPPLEY   PTCLDY    49  31  49 SE15      30.02F
BLAIR          CLEAR     49  31  49 SE16      29.99F
FREMONT        CLEAR     50  32  49 SE15G21   29.99F
MILLARD        CLEAR     49  32  51 SE12      30.01F
OFFUTT AFB     CLEAR     49  32  51 SE12      30.02F
PLATTSMOUTH    CLEAR     48  30  49 SE13      30.03F
WAHOO          FAIR      49  32  52 SE14      29.99F
$$


USA.gov is the U.S. government's official web portal to all federal, state and local government web resources and services.